TimeEDT,TemperatureF,Dew PointF,Humidity,Sea Level PressureIn,VisibilityMPH,Wind Direction,Wind SpeedMPH,Gust SpeedMPH,PrecipitationIn,Events,Conditions,WindDirDegrees,DateUTC
1:53 AM,46.9,39.9,77,30.12,10.0,NNW,5.8,-,N/A,,Clear,330,2011-10-03 05:53:00
2:53 AM,46.9,39.9,77,30.10,10.0,Variable,3.5,-,N/A,,Clear,0,2011-10-03 06:53:00
4:53 AM,45.0,39.9,82,30.12,10.0,Calm,Calm,-,N/A,,Clear,0,2011-10-03 08:53:00
5:53 AM,45.0,39.9,82,30.12,10.0,Calm,Calm,-,N/A,,Clear,0,2011-10-03 09:53:00
6:53 AM,44.1,39.0,82,30.14,10.0,Calm,Calm,-,N/A,,Clear,0,2011-10-03 10:53:00
7:53 AM,45.0,39.9,82,30.14,10.0,Calm,Calm,-,N/A,,Clear,0,2011-10-03 11:53:00
8:53 AM,46.0,39.9,79,30.15,10.0,Calm,Calm,-,N/A,,Clear,0,2011-10-03 12:53:00
9:53 AM,50.0,41.0,71,30.15,10.0,WNW,3.5,-,N/A,,Overcast,300,2011-10-03 13:53:00
10:53 AM,57.0,43.0,59,30.15,10.0,WNW,5.8,-,N/A,,Overcast,300,2011-10-03 14:53:00
11:53 AM,63.0,39.0,41,30.14,10.0,NW,11.5,21.9,N/A,,Clear,320,2011-10-03 15:53:00
12:53 PM,66.0,39.0,37,30.13,10.0,NW,13.8,20.7,N/A,,Clear,320,2011-10-03 16:53:00
2:53 PM,69.1,36.0,30,30.12,10.0,NW,12.7,18.4,N/A,,Clear,320,2011-10-03 18:53:00
3:53 PM,69.1,37.0,31,30.12,10.0,NNE,12.7,-,N/A,,Partly Cloudy,20,2011-10-03 19:53:00
4:53 PM,70.0,37.9,31,30.12,10.0,North,10.4,-,N/A,,Clear,350,2011-10-03 20:53:00
5:53 PM,68.0,36.0,31,30.13,10.0,NW,10.4,-,N/A,,Clear,310,2011-10-03 21:53:00
6:53 PM,64.0,36.0,35,30.14,10.0,North,5.8,-,N/A,,Clear,360,2011-10-03 22:53:00
7:53 PM,57.0,37.9,49,30.17,10.0,North,5.8,-,N/A,,Clear,360,2011-10-03 23:53:00
9:53 PM,57.0,41.0,55,30.20,10.0,North,4.6,-,N/A,,Overcast,360,2011-10-04 01:53:00
10:53 PM,54.0,44.1,69,30.21,10.0,Calm,Calm,-,N/A,,Overcast,0,2011-10-04 02:53:00
11:53 PM,52.0,45.0,77,30.20,10.0,Calm,Calm,-,N/A,,Clear,0,2011-10-04 03:53:00